| time (UTC) | temp C | wind direction | speed KPH | gust KPH | rain 1hr cm | rain 24hr cm | rain mn cm | humidity % | barometer mb |
| 20260905145108 | 28 | 212 | 9.7 | 11.3 | 0.00 | 0.00 | 0.00 | 78 | 1016.8 |
| 20260905144603 | 28 | 164 | 9.7 | 11.3 | 0.00 | 0.00 | 0.00 | 76 | 1016.7 |
| 20260905144102 | 28 | 320 | 6.4 | 6.4 | 0.00 | 0.00 | 0.00 | 76 | 1016.6 |
| 20260905143601 | 28 | 111 | 1.6 | 3.2 | 0.00 | 0.00 | 0.00 | 82 | 1016.6 |
| 20260905143057 | 28 | 207 | 1.6 | 1.6 | 0.00 | 0.00 | 0.00 | 81 | 1016.6 |
| 20260905142555 | 28 | 112 | 3.2 | 3.2 | 0.00 | 0.00 | 0.00 | 83 | 1016.7 |
| 20260905142050 | 28 | 100 | 6.4 | 6.4 | 0.00 | 0.00 | 0.00 | 82 | 1016.6 |
| 20260905141545 | 27 | 215 | 8.0 | 9.7 | 0.00 | 0.00 | 0.00 | 84 | 1016.7 |
| 20260905141041 | 27 | 210 | 6.4 | 6.4 | 0.00 | 0.00 | 0.00 | 84 | 1016.8 |
| 20260905140536 | 27 | 229 | 6.4 | 6.4 | 0.00 | 0.00 | 0.00 | 85 | 1016.7 |
| 20260905140035 | 27 | 190 | 4.8 | 6.4 | 0.00 | 0.00 | 0.00 | 86 | 1016.5 |
| 20260905135530 | 27 | 178 | 1.6 | 1.6 | 0.00 | 0.00 | 0.00 | 87 | 1016.8 |
| 20260905135025 | 27 | 180 | 8.0 | 9.7 | 0.00 | 0.00 | 0.00 | 87 | 1016.5 |
| 20260905134520 | 27 | 191 | 3.2 | 3.2 | 0.00 | 0.00 | 0.00 | 87 | 1016.5 |
| 20260905134019 | 27 | 217 | 3.2 | 3.2 | 0.00 | 0.00 | 0.00 | 87 | 1016.4 |
| 20260905133514 | 27 | 266 | 1.6 | 1.6 | 0.00 | 0.00 | 0.00 | 87 | 1016.4 |
| 20260905133013 | 27 | 124 | 4.8 | 4.8 | 0.00 | 0.00 | 0.00 | 89 | 1016.4 |
| 20260905132509 | 27 | 100 | 3.2 | 4.8 | 0.00 | 0.00 | 0.00 | 89 | 1016.4 |
| 20260905132009 | 26 | 119 | 4.8 | 4.8 | 0.00 | 0.00 | 0.00 | 90 | 1016.3 |
| 20260905131504 | 26 | 150 | 3.2 | 3.2 | 0.00 | 0.00 | 0.00 | 89 | 1016.2 |
| 20260905130959 | 26 | 90 | 0.0 | 0.0 | 0.00 | 0.00 | 0.00 | 90 | 1016.2 |
| 20260905123621 | 25 | 132 | 0.0 | 0.0 | 0.00 | 0.00 | 0.00 | 94 | 1015.6 |
| 20260905123118 | 25 | 132 | 0.0 | 0.0 | 0.00 | 0.00 | 0.00 | 94 | 1015.6 |
| 20260905122612 | 25 | 132 | 0.0 | 0.0 | 0.00 | 0.00 | 0.00 | 94 | 1015.6 |
| 20260905122106 | 25 | 148 | 0.0 | 0.0 | 0.00 | 0.00 | 0.00 | 94 | 1015.8 |
| 20260905121556 | 25 | 149 | 4.8 | 4.8 | 0.00 | 0.00 | 0.00 | 94 | 1015.7 |
| 20260905121051 | 25 | 109 | 1.6 | 1.6 | 0.00 | 0.00 | 0.00 | 94 | 1015.6 |
| 20260905120550 | 25 | 98 | 0.0 | 0.0 | 0.00 | 0.00 | 0.00 | 94 | 1015.5 |
| 20260905120046 | 25 | 100 | 0.0 | 0.0 | 0.00 | 0.00 | 0.00 | 94 | 1015.4 |
| 20260905115544 | 25 | 136 | 0.0 | 0.0 | 0.00 | 0.00 | 0.00 | 93 | 1015.4 |
| 20260905115039 | 25 | 136 | 0.0 | 0.0 | 0.00 | 0.00 | 0.00 | 93 | 1015.3 |
| 20260905114538 | 25 | 136 | 0.0 | 0.0 | 0.00 | 0.00 | 0.00 | 93 | 1015.4 |
| 20260905114037 | 25 | 136 | 0.0 | 0.0 | 0.00 | 0.00 | 0.00 | 93 | 1015.5 |
| 20260905113532 | 25 | 134 | 0.0 | 0.0 | 0.00 | 0.00 | 0.00 | 93 | 1015.5 |
| 20260905113028 | 25 | 133 | 0.0 | 0.0 | 0.00 | 0.00 | 0.00 | 93 | 1015.4 |
| 20260905112523 | 25 | 162 | 0.0 | 0.0 | 0.00 | 0.00 | 0.00 | 93 | 1015.3 |
| 20260905112019 | 25 | 160 | 0.0 | 0.0 | 0.00 | 0.00 | 0.00 | 93 | 1015.3 |
| 20260905111513 | 25 | 189 | 0.0 | 0.0 | 0.00 | 0.00 | 0.00 | 93 | 1015.4 |
| 20260905111013 | 25 | 206 | 0.0 | 0.0 | 0.00 | 0.00 | 0.00 | 93 | 1015.4 |
| 20260905110512 | 25 | 220 | 0.0 | 0.0 | 0.00 | 0.00 | 0.00 | 93 | 1015.3 |
| 20260905110007 | 25 | 133 | 0.0 | 0.0 | 0.00 | 0.00 | 0.00 | 92 | 1015.4 |
| 20260905105502 | 25 | 143 | 0.0 | 0.0 | 0.00 | 0.00 | 0.00 | 92 | 1015.3 |
| 20260905105001 | 25 | 223 | 0.0 | 0.0 | 0.00 | 0.00 | 0.00 | 92 | 1015.4 |
| 20260905104456 | 25 | 234 | 0.0 | 0.0 | 0.00 | 0.00 | 0.00 | 92 | 1015.3 |
| 20260905103951 | 25 | 218 | 0.0 | 0.0 | 0.00 | 0.00 | 0.00 | 92 | 1015.2 |
| 20260905103446 | 25 | 182 | 0.0 | 0.0 | 0.00 | 0.00 | 0.00 | 92 | 1015.1 |
| 20260905102942 | 25 | 191 | 0.0 | 0.0 | 0.00 | 0.00 | 0.00 | 92 | 1015.2 |
| 20260905102438 | 25 | 224 | 0.0 | 0.0 | 0.00 | 0.00 | 0.00 | 92 | 1015.1 |
| 20260905101933 | 25 | 226 | 0.0 | 0.0 | 0.00 | 0.00 | 0.00 | 92 | 1015.3 |
| 20260905101432 | 25 | 231 | 0.0 | 0.0 | 0.00 | 0.00 | 0.00 | 92 | 1015.2 |
| 20260905100927 | 25 | 230 | 0.0 | 0.0 | 0.00 | 0.00 | 0.00 | 92 | 1015.3 |
| 20260905100422 | 25 | 194 | 0.0 | 0.0 | 0.00 | 0.00 | 0.00 | 92 | 1015.1 |
| 20260905095921 | 25 | 211 | 0.0 | 0.0 | 0.00 | 0.00 | 0.00 | 92 | 1015.1 |
| 20260905095416 | 25 | 208 | 0.0 | 1.6 | 0.00 | 0.00 | 0.00 | 92 | 1015.0 |
| 20260905094910 | 25 | 187 | 0.0 | 1.6 | 0.00 | 0.00 | 0.00 | 91 | 1015.0 |
| 20260905094406 | 25 | 239 | 0.0 | 0.0 | 0.00 | 0.00 | 0.00 | 91 | 1015.1 |
| 20260905093904 | 25 | 276 | 0.0 | 0.0 | 0.00 | 0.00 | 0.00 | 91 | 1015.1 |
| 20260905093355 | 25 | 276 | 0.0 | 0.0 | 0.00 | 0.00 | 0.00 | 91 | 1015.0 |
| 20260905092850 | 25 | 277 | 0.0 | 0.0 | 0.00 | 0.00 | 0.00 | 90 | 1015.1 |
| 20260905092345 | 25 | 277 | 0.0 | 0.0 | 0.00 | 0.00 | 0.00 | 90 | 1015.1 |
| 20260905091840 | 25 | 276 | 0.0 | 0.0 | 0.00 | 0.00 | 0.00 | 90 | 1015.2 |
| 20260905091340 | 25 | 238 | 0.0 | 0.0 | 0.00 | 0.00 | 0.00 | 90 | 1015.2 |
| 20260905090838 | 26 | 219 | 0.0 | 0.0 | 0.00 | 0.00 | 0.00 | 90 | 1015.1 |
| 20260905090335 | 26 | 184 | 0.0 | 0.0 | 0.00 | 0.00 | 0.00 | 89 | 1015.0 |
| 20260905085834 | 26 | 204 | 0.0 | 0.0 | 0.00 | 0.00 | 0.00 | 89 | 1015.0 |
| 20260905085334 | 26 | 194 | 1.6 | 1.6 | 0.00 | 0.00 | 0.00 | 89 | 1015.2 |
| 20260905084830 | 26 | 121 | 4.8 | 4.8 | 0.00 | 0.00 | 0.00 | 89 | 1015.2 |
| 20260905084329 | 26 | 171 | 1.6 | 1.6 | 0.00 | 0.00 | 0.00 | 88 | 1015.1 |
| 20260905083829 | 26 | 145 | 3.2 | 3.2 | 0.00 | 0.00 | 0.00 | 88 | 1015.2 |
| 20260905083325 | 26 | 172 | 4.8 | 4.8 | 0.00 | 0.00 | 0.00 | 88 | 1015.3 |
| 20260905082820 | 26 | 178 | 3.2 | 3.2 | 0.00 | 0.00 | 0.00 | 88 | 1015.2 |
| 20260905082316 | 26 | 196 | 4.8 | 4.8 | 0.00 | 0.00 | 0.00 | 87 | 1015.1 |
| 20260905081811 | 26 | 113 | 6.4 | 9.7 | 0.00 | 0.00 | 0.00 | 87 | 1015.3 |
| 20260905081306 | 26 | 199 | 3.2 | 3.2 | 0.00 | 0.00 | 0.00 | 87 | 1015.4 |
| 20260905080805 | 26 | 166 | 4.8 | 4.8 | 0.00 | 0.00 | 0.00 | 87 | 1015.2 |
| 20260905080300 | 26 | 166 | 4.8 | 4.8 | 0.00 | 0.00 | 0.00 | 87 | 1015.3 |
| 20260905075758 | 26 | 145 | 3.2 | 4.8 | 0.00 | 0.00 | 0.00 | 87 | 1015.3 |
| 20260905075253 | 26 | 191 | 4.8 | 6.4 | 0.00 | 0.00 | 0.00 | 87 | 1015.5 |
| 20260905074752 | 26 | 204 | 8.0 | 12.9 | 0.00 | 0.00 | 0.00 | 87 | 1015.3 |
| 20260905074248 | 26 | 187 | 8.0 | 11.3 | 0.00 | 0.00 | 0.00 | 86 | 1015.4 |
| 20260905073743 | 26 | 176 | 4.8 | 4.8 | 0.00 | 0.00 | 0.00 | 86 | 1015.4 |
| 20260905073239 | 26 | 168 | 4.8 | 4.8 | 0.00 | 0.00 | 0.00 | 86 | 1015.5 |
| 20260905072738 | 26 | 161 | 9.7 | 11.3 | 0.00 | 0.00 | 0.00 | 85 | 1015.5 |
| 20260905072234 | 26 | 189 | 9.7 | 12.9 | 0.00 | 0.00 | 0.00 | 85 | 1015.5 |
| 20260905071730 | 26 | 114 | 6.4 | 9.7 | 0.00 | 0.00 | 0.00 | 85 | 1015.7 |
| 20260905071226 | 26 | 175 | 8.0 | 11.3 | 0.00 | 0.00 | 0.00 | 85 | 1015.7 |
| 20260905070721 | 26 | 168 | 3.2 | 3.2 | 0.00 | 0.00 | 0.00 | 85 | 1015.5 |
| 20260905070217 | 26 | 168 | 4.8 | 9.7 | 0.00 | 0.00 | 0.00 | 85 | 1015.7 |
| 20260905065715 | 26 | 191 | 6.4 | 6.4 | 0.00 | 0.00 | 0.00 | 84 | 1015.8 |
| 20260905065210 | 26 | 141 | 3.2 | 4.8 | 0.00 | 0.00 | 0.00 | 84 | 1015.6 |
| 20260905064705 | 26 | 149 | 4.8 | 4.8 | 0.00 | 0.00 | 0.00 | 83 | 1015.8 |
| 20260905064201 | 26 | 194 | 4.8 | 4.8 | 0.00 | 0.00 | 0.00 | 83 | 1015.7 |
| 20260905063659 | 26 | 174 | 6.4 | 6.4 | 0.00 | 0.00 | 0.00 | 83 | 1015.7 |
| 20260905063155 | 26 | 133 | 4.8 | 4.8 | 0.00 | 0.00 | 0.00 | 82 | 1015.8 |
| 20260905062651 | 26 | 144 | 6.4 | 6.4 | 0.00 | 0.00 | 0.00 | 82 | 1015.8 |
| 20260905062150 | 26 | 141 | 4.8 | 4.8 | 0.00 | 0.00 | 0.00 | 81 | 1015.8 |
| 20260905061644 | 26 | 109 | 4.8 | 6.4 | 0.00 | 0.00 | 0.00 | 81 | 1015.8 |
| 20260905061138 | 26 | 156 | 3.2 | 4.8 | 0.00 | 0.00 | 0.00 | 80 | 1015.8 |
| 20260905060634 | 26 | 140 | 8.0 | 9.7 | 0.00 | 0.00 | 0.00 | 80 | 1016.0 |
| 20260905060131 | 27 | 146 | 3.2 | 3.2 | 0.00 | 0.00 | 0.00 | 80 | 1015.8 |
| 20260905055628 | 27 | 149 | 3.2 | 3.2 | 0.00 | 0.00 | 0.00 | 80 | 1016.0 |
| 20260905055124 | 27 | 118 | 4.8 | 4.8 | 0.00 | 0.00 | 0.00 | 79 | 1015.8 |
| 20260905054620 | 27 | 122 | 6.4 | 6.4 | 0.00 | 0.00 | 0.00 | 79 | 1015.7 |
| 20260905054115 | 27 | 169 | 6.4 | 9.7 | 0.00 | 0.00 | 0.00 | 78 | 1015.8 |
| 20260905053615 | 27 | 99 | 6.4 | 9.7 | 0.00 | 0.00 | 0.00 | 78 | 1015.9 |
| 20260905053110 | 27 | 169 | 4.8 | 4.8 | 0.00 | 0.00 | 0.00 | 78 | 1015.7 |
| 20260905052609 | 27 | 152 | 4.8 | 6.4 | 0.00 | 0.00 | 0.00 | 77 | 1015.9 |
| 20260905052104 | 27 | 171 | 6.4 | 9.7 | 0.00 | 0.00 | 0.00 | 77 | 1015.8 |
| 20260905051600 | 27 | 106 | 3.2 | 4.8 | 0.00 | 0.00 | 0.00 | 77 | 1015.9 |
| 20260905051056 | 27 | 141 | 4.8 | 6.4 | 0.00 | 0.00 | 0.00 | 76 | 1016.1 |
| 20260905050552 | 27 | 130 | 4.8 | 4.8 | 0.00 | 0.00 | 0.00 | 76 | 1016.0 |
| 20260905050048 | 27 | 154 | 9.7 | 11.3 | 0.00 | 0.15 | 0.15 | 75 | 1016.0 |
| 20260905045543 | 27 | 176 | 3.2 | 4.8 | 0.00 | 0.15 | 0.15 | 76 | 1015.8 |
| 20260905045038 | 27 | 129 | 4.8 | 4.8 | 0.00 | 0.15 | 0.15 | 75 | 1016.0 |
| 20260905044532 | 27 | 107 | 8.0 | 11.3 | 0.00 | 0.15 | 0.15 | 75 | 1016.0 |
| 20260905044027 | 27 | 169 | 1.6 | 1.6 | 0.00 | 0.15 | 0.15 | 75 | 1015.8 |
| 20260905043526 | 27 | 155 | 4.8 | 9.7 | 0.00 | 0.15 | 0.15 | 75 | 1015.8 |
| 20260905043016 | 27 | 155 | 6.4 | 6.4 | 0.00 | 0.15 | 0.15 | 75 | 1015.7 |
| 20260905042514 | 27 | 110 | 4.8 | 6.4 | 0.00 | 0.15 | 0.15 | 75 | 1016.0 |
| 20260905042004 | 27 | 113 | 3.2 | 4.8 | 0.00 | 0.15 | 0.15 | 75 | 1015.9 |
| 20260905041459 | 27 | 143 | 6.4 | 9.7 | 0.00 | 0.15 | 0.15 | 75 | 1015.8 |
| 20260905040954 | 27 | 115 | 9.7 | 11.3 | 0.00 | 0.15 | 0.15 | 75 | 1015.9 |
| 20260905040448 | 27 | 151 | 3.2 | 9.7 | 0.00 | 0.15 | 0.15 | 74 | 1015.7 |
| 20260905035947 | 27 | 127 | 3.2 | 4.8 | 0.00 | 0.15 | 0.15 | 74 | 1015.8 |
| 20260905035442 | 28 | 131 | 0.0 | 0.0 | 0.00 | 0.15 | 0.15 | 74 | 1015.8 |
| 20260905034940 | 28 | 131 | 3.2 | 4.8 | 0.00 | 0.15 | 0.15 | 73 | 1015.7 |
| 20260905034435 | 28 | 133 | 1.6 | 3.2 | 0.00 | 0.15 | 0.15 | 73 | 1015.9 |
| 20260905033933 | 28 | 165 | 4.8 | 6.4 | 0.00 | 0.15 | 0.15 | 73 | 1015.8 |
| 20260905033428 | 28 | 107 | 3.2 | 4.8 | 0.00 | 0.15 | 0.15 | 73 | 1015.8 |
| 20260905032928 | 28 | 124 | 1.6 | 1.6 | 0.00 | 0.15 | 0.15 | 73 | 1016.0 |
| 20260905032424 | 28 | 143 | 0.0 | 0.0 | 0.00 | 0.15 | 0.15 | 73 | 1015.7 |
| 20260905031919 | 28 | 125 | 1.6 | 3.2 | 0.00 | 0.15 | 0.15 | 73 | 1015.8 |
| 20260905031415 | 28 | 131 | 3.2 | 3.2 | 0.00 | 0.15 | 0.15 | 73 | 1015.8 |
| 20260905030910 | 28 | 130 | 3.2 | 4.8 | 0.00 | 0.15 | 0.15 | 73 | 1015.5 |
| 20260905030405 | 28 | 124 | 1.6 | 3.2 | 0.00 | 0.15 | 0.15 | 73 | 1015.6 |
| 20260905025904 | 28 | 83 | 6.4 | 6.4 | 0.00 | 0.15 | 0.15 | 73 | 1015.6 |
| 20260905025354 | 28 | 99 | 6.4 | 6.4 | 0.00 | 0.15 | 0.15 | 73 | 1015.4 |
| 20260905024850 | 28 | 119 | 1.6 | 1.6 | 0.00 | 0.15 | 0.15 | 73 | 1015.2 |
| 20260905024344 | 28 | 114 | 8.0 | 9.7 | 0.00 | 0.15 | 0.15 | 72 | 1015.5 |
| 20260905023840 | 28 | 110 | 6.4 | 6.4 | 0.00 | 0.15 | 0.15 | 72 | 1015.3 |
| 20260905023335 | 28 | 126 | 4.8 | 4.8 | 0.00 | 0.15 | 0.15 | 72 | 1015.4 |
| 20260905022833 | 28 | 127 | 3.2 | 3.2 | 0.00 | 0.15 | 0.15 | 72 | 1015.2 |
| 20260905022329 | 28 | 87 | 6.4 | 6.4 | 0.00 | 0.15 | 0.15 | 72 | 1015.0 |
| 20260905021825 | 29 | 92 | 3.2 | 4.8 | 0.00 | 0.15 | 0.15 | 71 | 1015.2 |
| 20260905021320 | 28 | 115 | 6.4 | 6.4 | 0.00 | 0.15 | 0.15 | 72 | 1015.0 |
| 20260905020820 | 29 | 113 | 1.6 | 3.2 | 0.00 | 0.15 | 0.15 | 72 | 1015.1 |
| 20260905020315 | 29 | 190 | 6.4 | 6.4 | 0.00 | 0.15 | 0.15 | 71 | 1014.9 |
| 20260905015813 | 29 | 97 | 1.6 | 3.2 | 0.00 | 0.15 | 0.15 | 71 | 1014.9 |
| 20260905015308 | 29 | 171 | 8.0 | 9.7 | 0.00 | 0.15 | 0.15 | 71 | 1015.0 |
| 20260905014807 | 29 | 96 | 6.4 | 9.7 | 0.00 | 0.15 | 0.15 | 71 | 1015.0 |
| 20260905014303 | 29 | 97 | 6.4 | 9.7 | 0.00 | 0.15 | 0.15 | 71 | 1014.8 |
| 20260905013758 | 29 | 131 | 4.8 | 9.7 | 0.00 | 0.15 | 0.15 | 71 | 1014.8 |
| 20260905013254 | 29 | 115 | 4.8 | 4.8 | 0.00 | 0.15 | 0.15 | 71 | 1014.8 |
| 20260905012749 | 29 | 96 | 9.7 | 14.5 | 0.00 | 0.15 | 0.15 | 70 | 1014.8 |
| 20260905012245 | 29 | 120 | 4.8 | 6.4 | 0.00 | 0.15 | 0.15 | 71 | 1014.6 |
| 20260905011736 | 29 | 100 | 4.8 | 6.4 | 0.00 | 0.15 | 0.15 | 71 | 1014.5 |
| 20260905011226 | 29 | 113 | 6.4 | 6.4 | 0.00 | 0.15 | 0.15 | 72 | 1014.7 |
| 20260905010726 | 29 | 87 | 1.6 | 1.6 | 0.00 | 0.15 | 0.15 | 74 | 1014.5 |
| 20260905010221 | 29 | 62 | 4.8 | 4.8 | 0.00 | 0.15 | 0.15 | 74 | 1014.4 |
| 20260905005718 | 29 | 88 | 9.7 | 11.3 | 0.00 | 0.15 | 0.15 | 74 | 1014.4 |
| 20260905005213 | 29 | 135 | 3.2 | 3.2 | 0.00 | 0.15 | 0.15 | 73 | 1014.5 |
| 20260905004707 | 29 | 105 | 8.0 | 11.3 | 0.00 | 0.15 | 0.15 | 73 | 1014.3 |
| 20260905004203 | 29 | 112 | 1.6 | 3.2 | 0.00 | 0.15 | 0.15 | 74 | 1014.4 |
| 20260905003658 | 29 | 78 | 8.0 | 9.7 | 0.00 | 0.15 | 0.15 | 73 | 1014.2 |
| 20260905003154 | 30 | 85 | 8.0 | 11.3 | 0.00 | 0.15 | 0.15 | 72 | 1014.3 |
| 20260905002649 | 30 | 78 | 4.8 | 4.8 | 0.00 | 0.15 | 0.15 | 72 | 1014.2 |
| 20260905002148 | 30 | 45 | 1.6 | 1.6 | 0.00 | 0.15 | 0.15 | 72 | 1014.0 |
| 20260905001644 | 30 | 96 | 4.8 | 4.8 | 0.00 | 0.15 | 0.15 | 72 | 1013.9 |
| 20260905001143 | 30 | 83 | 4.8 | 6.4 | 0.00 | 0.15 | 0.15 | 72 | 1013.9 |
| 20260905000638 | 30 | 81 | 11.3 | 14.5 | 0.00 | 0.15 | 0.15 | 71 | 1014.2 |
| 20260905000134 | 30 | 51 | 4.8 | 6.4 | 0.00 | 0.15 | 0.15 | 71 | 1014.1 |
| 20260904235633 | 30 | 103 | 9.7 | 11.3 | 0.00 | 0.15 | 0.15 | 71 | 1014.1 |
| 20260904235133 | 30 | 62 | 8.0 | 12.9 | 0.00 | 0.15 | 0.15 | 72 | 1014.1 |
| 20260904234628 | 30 | 99 | 3.2 | 4.8 | 0.00 | 0.15 | 0.15 | 72 | 1014.0 |
| 20260904234124 | 30 | 101 | 4.8 | 14.5 | 0.00 | 0.15 | 0.15 | 72 | 1014.0 |
| 20260904233619 | 29 | 92 | 9.7 | 12.9 | 0.00 | 0.15 | 0.15 | 72 | 1014.1 |
| 20260904233115 | 28 | 111 | 8.0 | 11.3 | 0.00 | 0.15 | 0.15 | 73 | 1014.0 |
| 20260904232612 | 28 | 48 | 8.0 | 9.7 | 0.00 | 0.15 | 0.15 | 73 | 1013.9 |
| 20260904232108 | 28 | 88 | 8.0 | 11.3 | 0.00 | 0.15 | 0.15 | 75 | 1013.9 |
| 20260904231604 | 28 | 89 | 9.7 | 11.3 | 0.00 | 0.15 | 0.15 | 73 | 1014.1 |
| 20260904231104 | 28 | 92 | 12.9 | 16.1 | 0.00 | 0.15 | 0.15 | 73 | 1014.0 |
| 20260904230603 | 28 | 36 | 6.4 | 11.3 | 0.00 | 0.15 | 0.15 | 71 | 1014.0 |
| 20260904230054 | 28 | 105 | 6.4 | 11.3 | 0.00 | 0.15 | 0.15 | 69 | 1014.1 |
| 20260904225551 | 29 | 60 | 12.9 | 17.7 | 0.00 | 0.15 | 0.15 | 66 | 1014.0 |
| 20260904225046 | 30 | 88 | 12.9 | 24.1 | 0.00 | 0.15 | 0.15 | 67 | 1013.9 |
| 20260904224541 | 30 | 103 | 20.9 | 30.6 | 0.00 | 0.15 | 0.15 | 66 | 1014.0 |
| 20260904224041 | 32 | 107 | 6.4 | 9.7 | 0.00 | 0.15 | 0.15 | 60 | 1014.1 |
| 20260904223539 | 33 | 105 | 9.7 | 11.3 | 0.00 | 0.15 | 0.15 | 51 | 1014.0 |
| 20260904223036 | 33 | 176 | 8.0 | 11.3 | 0.00 | 0.15 | 0.15 | 50 | 1013.8 |
| 20260904222531 | 33 | 172 | 4.8 | 6.4 | 0.00 | 0.15 | 0.15 | 51 | 1014.1 |
| 20260904222026 | 33 | 163 | 11.3 | 14.5 | 0.00 | 0.15 | 0.15 | 51 | 1013.8 |
| 20260904221520 | 33 | 154 | 12.9 | 16.1 | 0.00 | 0.15 | 0.15 | 53 | 1013.7 |
| 20260904221015 | 33 | 204 | 14.5 | 17.7 | 0.00 | 0.15 | 0.15 | 53 | 1013.8 |
| 20260904220515 | 33 | 108 | 9.7 | 12.9 | 0.00 | 0.15 | 0.15 | 55 | 1013.9 |
| 20260904220011 | 33 | 133 | 14.5 | 14.5 | 0.00 | 0.15 | 0.15 | 54 | 1014.1 |
| 20260904215505 | 33 | 164 | 9.7 | 14.5 | 0.00 | 0.15 | 0.15 | 52 | 1013.9 |
| 20260904215001 | 33 | 154 | 9.7 | 11.3 | 0.00 | 0.15 | 0.15 | 52 | 1014.0 |
| 20260904214456 | 33 | 154 | 3.2 | 6.4 | 0.00 | 0.15 | 0.15 | 51 | 1013.9 |
| 20260904213951 | 33 | 196 | 6.4 | 9.7 | 0.00 | 0.15 | 0.15 | 50 | 1014.3 |
| 20260904213449 | 33 | 72 | 4.8 | 9.7 | 0.00 | 0.15 | 0.15 | 48 | 1014.4 |
| 20260904212946 | 33 | 167 | 11.3 | 14.5 | 0.00 | 0.15 | 0.15 | 49 | 1014.3 |
| 20260904212446 | 33 | 71 | 8.0 | 12.9 | 0.00 | 0.15 | 0.15 | 50 | 1014.3 |
| 20260904211940 | 33 | 171 | 11.3 | 12.9 | 0.00 | 0.15 | 0.15 | 49 | 1014.6 |
| 20260904211435 | 33 | 118 | 8.0 | 11.3 | 0.00 | 0.15 | 0.15 | 49 | 1014.4 |
| 20260904210931 | 33 | 179 | 6.4 | 6.4 | 0.00 | 0.15 | 0.15 | 51 | 1014.6 |
| 20260904210430 | 32 | 211 | 1.6 | 3.2 | 0.00 | 0.15 | 0.15 | 54 | 1014.4 |
| 20260904205926 | 32 | 145 | 9.7 | 11.3 | 0.00 | 0.15 | 0.15 | 53 | 1014.7 |
| 20260904205421 | 32 | 101 | 6.4 | 9.7 | 0.00 | 0.15 | 0.15 | 51 | 1014.7 |
| 20260904204919 | 32 | 152 | 6.4 | 9.7 | 0.00 | 0.15 | 0.15 | 55 | 1014.9 |
| 20260904204419 | 32 | 207 | 6.4 | 9.7 | 0.00 | 0.15 | 0.15 | 54 | 1014.9 |
| 20260904203915 | 32 | 192 | 8.0 | 9.7 | 0.00 | 0.15 | 0.15 | 55 | 1015.1 |
| 20260904203411 | 32 | 144 | 11.3 | 14.5 | 0.00 | 0.15 | 0.15 | 54 | 1015.0 |
| 20260904202906 | 32 | 202 | 6.4 | 6.4 | 0.00 | 0.15 | 0.15 | 51 | 1015.3 |
| 20260904202403 | 32 | 191 | 11.3 | 12.9 | 0.00 | 0.15 | 0.15 | 53 | 1015.3 |
| 20260904201858 | 32 | 144 | 3.2 | 3.2 | 0.00 | 0.15 | 0.15 | 53 | 1015.3 |
| 20260904201354 | 32 | 197 | 6.4 | 6.4 | 0.00 | 0.15 | 0.15 | 54 | 1015.1 |
| 20260904200848 | 32 | 111 | 6.4 | 9.7 | 0.00 | 0.15 | 0.15 | 56 | 1015.3 |
| 20260904200347 | 31 | 170 | 3.2 | 3.2 | 0.00 | 0.15 | 0.15 | 57 | 1015.4 |
| 20260904195841 | 32 | 135 | 16.1 | 17.7 | 0.00 | 0.15 | 0.15 | 57 | 1015.5 |
| 20260904195340 | 32 | 136 | 14.5 | 14.5 | 0.00 | 0.15 | 0.15 | 56 | 1015.5 |
| 20260904194835 | 32 | 96 | 4.8 | 6.4 | 0.00 | 0.15 | 0.15 | 53 | 1015.5 |
| 20260904194329 | 31 | 210 | 8.0 | 11.3 | 0.00 | 0.15 | 0.15 | 56 | 1015.5 |
| 20260904193824 | 31 | 174 | 9.7 | 12.9 | 0.00 | 0.15 | 0.15 | 55 | 1015.7 |
| 20260904193320 | 31 | 159 | 11.3 | 14.5 | 0.00 | 0.15 | 0.15 | 53 | 1015.8 |
| 20260904192815 | 31 | 251 | 9.7 | 11.3 | 0.00 | 0.15 | 0.15 | 56 | 1015.7 |
| 20260904192310 | 31 | 209 | 11.3 | 12.9 | 0.00 | 0.15 | 0.15 | 58 | 1015.9 |
| 20260904191807 | 31 | 148 | 11.3 | 12.9 | 0.00 | 0.15 | 0.15 | 56 | 1015.8 |
| 20260904191303 | 30 | 151 | 6.4 | 9.7 | 0.00 | 0.15 | 0.15 | 58 | 1016.0 |
| 20260904190759 | 31 | 184 | 17.7 | 22.5 | 0.00 | 0.15 | 0.15 | 56 | 1016.0 |
| 20260904190255 | 30 | 148 | 11.3 | 16.1 | 0.00 | 0.15 | 0.15 | 57 | 1016.2 |
| 20260904185751 | 30 | 101 | 6.4 | 9.7 | 0.00 | 0.15 | 0.15 | 55 | 1016.4 |
| 20260904185246 | 30 | 145 | 8.0 | 11.3 | 0.00 | 0.15 | 0.15 | 60 | 1016.3 |
| 20260904184745 | 30 | 176 | 12.9 | 14.5 | 0.00 | 0.15 | 0.15 | 62 | 1016.4 |
| 20260904184241 | 30 | 209 | 14.5 | 16.1 | 0.00 | 0.15 | 0.15 | 65 | 1016.5 |
| 20260904183736 | 30 | 197 | 11.3 | 14.5 | 0.00 | 0.15 | 0.15 | 68 | 1016.4 |
| 20260904183231 | 30 | 192 | 12.9 | 16.1 | 0.00 | 0.15 | 0.15 | 69 | 1016.5 |
| 20260904182726 | 30 | 228 | 9.7 | 11.3 | 0.00 | 0.15 | 0.15 | 70 | 1016.6 |
| 20260904182221 | 30 | 196 | 16.1 | 20.9 | 0.00 | 0.15 | 0.15 | 69 | 1016.5 |
| 20260904181717 | 30 | 215 | 6.4 | 9.7 | 0.00 | 0.15 | 0.15 | 68 | 1016.6 |
| 20260904181216 | 30 | 188 | 17.7 | 20.9 | 0.00 | 0.15 | 0.15 | 67 | 1016.6 |
| 20260904180712 | 30 | 153 | 9.7 | 12.9 | 0.00 | 0.15 | 0.15 | 70 | 1016.6 |
| 20260904180207 | 30 | 172 | 9.7 | 12.9 | 0.00 | 0.15 | 0.15 | 71 | 1016.8 |
| 20260904175706 | 29 | 132 | 3.2 | 4.8 | 0.00 | 0.15 | 0.15 | 73 | 1016.8 |
| 20260904175204 | 29 | 126 | 3.2 | 4.8 | 0.00 | 0.15 | 0.15 | 74 | 1016.9 |
| 20260904174659 | 28 | 136 | 9.7 | 11.3 | 0.00 | 0.15 | 0.15 | 75 | 1016.8 |
| 20260904174156 | 28 | 171 | 6.4 | 6.4 | 0.00 | 0.15 | 0.15 | 76 | 1016.9 |
| 20260904173651 | 29 | 134 | 6.4 | 6.4 | 0.00 | 0.15 | 0.15 | 76 | 1017.0 |
| 20260904173146 | 28 | 72 | 8.0 | 11.3 | 0.00 | 0.15 | 0.15 | 77 | 1016.9 |
| 20260904172642 | 29 | 148 | 8.0 | 11.3 | 0.00 | 0.15 | 0.15 | 77 | 1016.8 |
| 20260904172141 | 29 | 204 | 3.2 | 6.4 | 0.00 | 0.15 | 0.15 | 77 | 1017.0 |
| 20260904171637 | 29 | 134 | 6.4 | 6.4 | 0.00 | 0.15 | 0.15 | 76 | 1016.7 |
| 20260904171132 | 28 | 121 | 8.0 | 9.7 | 0.00 | 0.15 | 0.15 | 76 | 1017.0 |
| 20260904170627 | 28 | 208 | 6.4 | 9.7 | 0.00 | 0.15 | 0.15 | 76 | 1017.0 |
| 20260904170123 | 28 | 162 | 6.4 | 6.4 | 0.00 | 0.15 | 0.15 | 77 | 1017.1 |
| 20260904165622 | 28 | 129 | 6.4 | 6.4 | 0.00 | 0.15 | 0.15 | 77 | 1017.1 |
| 20260904165116 | 28 | 138 | 4.8 | 4.8 | 0.00 | 0.15 | 0.15 | 77 | 1017.2 |
| 20260904164616 | 28 | 130 | 4.8 | 4.8 | 0.00 | 0.15 | 0.15 | 77 | 1017.1 |
| 20260904164106 | 28 | 155 | 6.4 | 6.4 | 0.00 | 0.15 | 0.15 | 78 | 1017.0 |
| 20260904163601 | 28 | 203 | 3.2 | 4.8 | 0.00 | 0.15 | 0.15 | 78 | 1017.0 |
| 20260904163056 | 28 | 190 | 6.4 | 6.4 | 0.00 | 0.15 | 0.15 | 78 | 1017.1 |
| 20260904162556 | 28 | 213 | 8.0 | 11.3 | 0.00 | 0.15 | 0.15 | 79 | 1017.2 |
| 20260904162052 | 28 | 167 | 1.6 | 3.2 | 0.00 | 0.15 | 0.15 | 81 | 1017.0 |
| 20260904161546 | 28 | 257 | 8.0 | 9.7 | 0.00 | 0.15 | 0.15 | 80 | 1017.0 |
| 20260904161042 | 28 | 188 | 9.7 | 11.3 | 0.00 | 0.15 | 0.15 | 81 | 1016.8 |
| 20260904160537 | 27 | 226 | 6.4 | 9.7 | 0.00 | 0.15 | 0.15 | 82 | 1017.1 |
| 20260904160033 | 27 | 198 | 6.4 | 6.4 | 0.00 | 0.15 | 0.15 | 82 | 1016.8 |
| 20260904155532 | 27 | 181 | 6.4 | 6.4 | 0.00 | 0.15 | 0.15 | 83 | 1017.0 |
| 20260904155026 | 27 | 206 | 8.0 | 11.3 | 0.00 | 0.15 | 0.15 | 83 | 1016.8 |
| 20260904154520 | 27 | 234 | 6.4 | 6.4 | 0.00 | 0.15 | 0.15 | 83 | 1016.8 |
| 20260904154015 | 27 | 234 | 8.0 | 11.3 | 0.00 | 0.15 | 0.15 | 84 | 1016.7 |
| 20260904153515 | 27 | 206 | 11.3 | 12.9 | 0.00 | 0.15 | 0.15 | 84 | 1016.6 |
| 20260904153012 | 27 | 210 | 4.8 | 9.7 | 0.00 | 0.15 | 0.15 | 84 | 1016.7 |
| 20260904152507 | 27 | 181 | 8.0 | 11.3 | 0.00 | 0.15 | 0.15 | 84 | 1016.6 |
| 20260904152002 | 27 | 243 | 8.0 | 11.3 | 0.00 | 0.15 | 0.15 | 85 | 1016.5 |
| 20260904151456 | 27 | 232 | 6.4 | 9.7 | 0.00 | 0.15 | 0.15 | 85 | 1016.5 |
| 20260904150951 | 27 | 165 | 9.7 | 11.3 | 0.00 | 0.15 | 0.15 | 86 | 1016.4 |
| 20260904150446 | 27 | 212 | 9.7 | 12.9 | 0.00 | 0.15 | 0.15 | 87 | 1016.5 |
| 20260904145944 | 27 | 205 | 16.1 | 17.7 | 0.00 | 0.15 | 0.15 | 86 | 1016.2 |
| 20260904145440 | 27 | 228 | 12.9 | 17.7 | 0.00 | 0.15 | 0.15 | 88 | 1016.3 |